| time (UTC) | temp F | wind direction | speed MPH | gust MPH | rain 1hr in | rain 24hr in | rain mn in | humidity % | barometer mb |
| 20260905230110 | 80 | 160 | 2.0 | 6.0 | 0.00 | 0.00 | 0.00 | 24 | 1022.4 |
| 20260905224610 | 80 | 335 | 0.0 | 3.0 | 0.00 | 0.00 | 0.00 | 23 | 1022.5 |
| 20260905223107 | 80 | 280 | 0.0 | 4.0 | 0.00 | 0.00 | 0.00 | 23 | 1022.5 |
| 20260905221608 | 81 | 48 | 1.0 | 5.0 | 0.00 | 0.00 | 0.00 | 23 | 1022.5 |
| 20260905220123 | 81 | 1 | 1.0 | 4.0 | 0.00 | 0.00 | 0.00 | 22 | 1022.4 |
| 20260905214606 | 82 | 330 | 3.0 | 9.0 | 0.00 | 0.00 | 0.00 | 22 | 1022.6 |
| 20260905213108 | 83 | 17 | 3.0 | 9.0 | 0.00 | 0.00 | 0.00 | 22 | 1022.8 |
| 20260905211609 | 83 | 44 | 0.0 | 7.0 | 0.00 | 0.00 | 0.00 | 21 | 1022.8 |
| 20260905210107 | 83 | 25 | 2.0 | 12.0 | 0.00 | 0.00 | 0.00 | 22 | 1023.0 |
| 20260905204606 | 82 | 82 | 4.0 | 12.0 | 0.00 | 0.00 | 0.00 | 22 | 1023.1 |
| 20260905203105 | 81 | 155 | 3.0 | 8.0 | 0.00 | 0.00 | 0.00 | 23 | 1023.4 |
| 20260905201607 | 80 | 53 | 4.0 | 9.0 | 0.00 | 0.00 | 0.00 | 23 | 1023.6 |
| 20260905200101 | 81 | 288 | 4.0 | 12.0 | 0.00 | 0.00 | 0.00 | 22 | 1023.6 |
| 20260905194607 | 82 | 21 | 3.0 | 13.0 | 0.00 | 0.00 | 0.00 | 22 | 1023.7 |
| 20260905193104 | 80 | 28 | 2.0 | 13.0 | 0.00 | 0.00 | 0.00 | 24 | 1023.8 |
| 20260905191605 | 82 | 4 | 4.0 | 13.0 | 0.00 | 0.00 | 0.00 | 24 | 1023.8 |
| 20260905190114 | 79 | 70 | 6.0 | 11.0 | 0.00 | 0.00 | 0.00 | 25 | 1023.9 |
| 20260905184607 | 82 | 50 | 4.0 | 11.0 | 0.00 | 0.00 | 0.00 | 24 | 1023.9 |
| 20260905183126 | 81 | 4 | 5.0 | 14.0 | 0.00 | 0.00 | 0.00 | 26 | 1023.8 |
| 20260905181606 | 81 | 6 | 5.0 | 13.0 | 0.00 | 0.00 | 0.00 | 26 | 1024.0 |
| 20260905180103 | 82 | 68 | 4.0 | 8.0 | 0.00 | 0.00 | 0.00 | 26 | 1024.2 |
| 20260905174607 | 82 | 51 | 5.0 | 11.0 | 0.00 | 0.00 | 0.00 | 27 | 1024.1 |
| 20260905173105 | 80 | 49 | 5.0 | 12.0 | 0.00 | 0.00 | 0.00 | 28 | 1024.2 |
| 20260905171605 | 79 | 1 | 3.0 | 11.0 | 0.00 | 0.00 | 0.00 | 29 | 1024.2 |
| 20260905170104 | 82 | 13 | 2.0 | 10.0 | 0.00 | 0.00 | 0.00 | 25 | 1023.7 |
| 20260905164608 | 82 | 30 | 4.0 | 10.0 | 0.00 | 0.00 | 0.00 | 24 | 1023.6 |
| 20260905163105 | 81 | 20 | 2.0 | 13.0 | 0.00 | 0.00 | 0.00 | 23 | 1023.6 |
| 20260905161605 | 84 | 36 | 3.0 | 7.0 | 0.00 | 0.00 | 0.00 | 20 | 1023.5 |
| 20260905160123 | 83 | 257 | 3.0 | 10.0 | 0.00 | 0.00 | 0.00 | 20 | 1023.6 |
| 20260905154607 | 83 | 22 | 1.0 | 5.0 | 0.00 | 0.00 | 0.00 | 21 | 1023.6 |
| 20260905153112 | 83 | 316 | 0.0 | 5.0 | 0.00 | 0.00 | 0.00 | 20 | 1023.5 |
| 20260905151610 | 81 | 259 | 1.0 | 4.0 | 0.00 | 0.00 | 0.00 | 22 | 1023.5 |
| 20260905150104 | 81 | 0 | 0.0 | 3.0 | 0.00 | 0.00 | 0.00 | 23 | 1023.5 |
| 20260905144606 | 79 | 191 | 0.0 | 4.0 | 0.00 | 0.00 | 0.00 | 24 | 1023.7 |
| 20260905143111 | 79 | 0 | 0.0 | 2.0 | 0.00 | 0.00 | 0.00 | 24 | 1023.7 |
| 20260905141605 | 78 | 41 | 0.0 | 2.0 | 0.00 | 0.00 | 0.00 | 24 | 1023.7 |
| 20260905140110 | 77 | 268 | 0.0 | 7.0 | 0.00 | 0.00 | 0.00 | 25 | 1023.5 |
| 20260905134607 | 76 | 110 | 1.0 | 5.0 | 0.00 | 0.00 | 0.00 | 26 | 1023.2 |
| 20260905133108 | 74 | 213 | 2.0 | 10.0 | 0.00 | 0.00 | 0.00 | 27 | 1023.1 |
| 20260905131616 | 73 | 243 | 4.0 | 9.0 | 0.00 | 0.00 | 0.00 | 28 | 1023.0 |
| 20260905130123 | 71 | 236 | 0.0 | 3.0 | 0.00 | 0.00 | 0.00 | 29 | 1022.8 |
| 20260905124608 | 69 | 272 | 2.0 | 10.0 | 0.00 | 0.00 | 0.00 | 30 | 1022.7 |
| 20260905123107 | 69 | 208 | 3.0 | 7.0 | 0.00 | 0.00 | 0.00 | 29 | 1022.5 |
| 20260905121604 | 70 | 215 | 1.0 | 6.0 | 0.00 | 0.00 | 0.00 | 29 | 1022.5 |
| 20260905120114 | 69 | 245 | 3.0 | 10.0 | 0.00 | 0.00 | 0.00 | 30 | 1022.5 |
| 20260905114605 | 68 | 221 | 3.0 | 7.0 | 0.00 | 0.00 | 0.00 | 32 | 1022.5 |
| 20260905113105 | 68 | 243 | 0.0 | 3.0 | 0.00 | 0.00 | 0.00 | 34 | 1022.6 |
| 20260905111613 | 68 | 210 | 0.0 | 4.0 | 0.00 | 0.00 | 0.00 | 32 | 1022.6 |
| 20260905110105 | 67 | 0 | 1.0 | 6.0 | 0.00 | 0.00 | 0.00 | 35 | 1022.5 |
| 20260905104607 | 67 | 0 | 0.0 | 8.0 | 0.00 | 0.00 | 0.00 | 34 | 1022.5 |
| 20260905103105 | 68 | 0 | 0.0 | 5.0 | 0.00 | 0.00 | 0.00 | 35 | 1022.4 |
| 20260905101605 | 67 | 0 | 0.0 | 3.0 | 0.00 | 0.00 | 0.00 | 36 | 1022.2 |
| 20260905100106 | 67 | 261 | 0.0 | 3.0 | 0.00 | 0.00 | 0.00 | 36 | 1022.2 |
| 20260905094608 | 66 | 246 | 0.0 | 3.0 | 0.00 | 0.00 | 0.00 | 38 | 1022.1 |
| 20260905093105 | 66 | 250 | 1.0 | 6.0 | 0.00 | 0.00 | 0.00 | 38 | 1021.9 |
| 20260905091608 | 66 | 0 | 0.0 | 2.0 | 0.00 | 0.00 | 0.00 | 39 | 1021.9 |
| 20260905090105 | 66 | 0 | 1.0 | 4.0 | 0.00 | 0.00 | 0.00 | 39 | 1021.9 |
| 20260905084619 | 66 | 233 | 0.0 | 3.0 | 0.00 | 0.00 | 0.00 | 39 | 1021.9 |
| 20260905083104 | 65 | 0 | 0.0 | 4.0 | 0.00 | 0.00 | 0.00 | 39 | 1021.9 |
| 20260905081604 | 66 | 0 | 0.0 | 4.0 | 0.00 | 0.00 | 0.00 | 37 | 1022.0 |
| 20260905080106 | 66 | 208 | 1.0 | 4.0 | 0.00 | 0.00 | 0.00 | 38 | 1022.1 |
| 20260905074606 | 66 | 255 | 0.0 | 2.0 | 0.00 | 0.00 | 0.00 | 38 | 1022.0 |
| 20260905073108 | 66 | 0 | 0.0 | 3.0 | 0.00 | 0.00 | 0.00 | 37 | 1022.0 |
| 20260905071608 | 67 | 0 | 0.0 | 3.0 | 0.00 | 0.00 | 0.00 | 37 | 1022.1 |
| 20260905070107 | 67 | 0 | 0.0 | 2.0 | 0.00 | 0.00 | 0.00 | 36 | 1022.1 |
| 20260905064602 | 68 | 0 | 0.0 | 4.0 | 0.00 | 0.00 | 0.00 | 35 | 1022.0 |
| 20260905063104 | 70 | 253 | 0.0 | 6.0 | 0.00 | 0.00 | 0.00 | 33 | 1022.0 |
| 20260905061611 | 70 | 226 | 2.0 | 7.0 | 0.00 | 0.00 | 0.00 | 32 | 1022.0 |
| 20260905060107 | 70 | 224 | 1.0 | 5.0 | 0.00 | 0.00 | 0.00 | 32 | 1021.9 |
| 20260905054604 | 70 | 0 | 0.0 | 5.0 | 0.00 | 0.00 | 0.00 | 32 | 1021.9 |
| 20260905053142 | 70 | 224 | 1.0 | 4.0 | 0.00 | 0.00 | 0.00 | 32 | 1022.1 |
| 20260905051604 | 70 | 223 | 1.0 | 5.0 | 0.00 | 0.00 | 0.00 | 32 | 1022.1 |
| 20260905050109 | 70 | 212 | 1.0 | 3.0 | 0.00 | 0.00 | 0.00 | 32 | 1022.1 |
| 20260905044605 | 70 | 231 | 0.0 | 6.0 | 0.00 | 0.00 | 0.00 | 32 | 1022.0 |
| 20260905043106 | 71 | 0 | 0.0 | 3.0 | 0.00 | 0.00 | 0.00 | 31 | 1022.2 |
| 20260905041611 | 71 | 0 | 0.0 | 1.0 | 0.00 | 0.00 | 0.00 | 31 | 1022.1 |
| 20260905040105 | 71 | 0 | 0.0 | 1.0 | 0.00 | 0.00 | 0.00 | 31 | 1022.4 |
| 20260905034605 | 72 | 0 | 0.0 | 1.0 | 0.00 | 0.00 | 0.00 | 31 | 1022.5 |
| 20260905033106 | 72 | 0 | 0.0 | 3.0 | 0.00 | 0.00 | 0.00 | 31 | 1022.6 |
| 20260905031605 | 73 | 0 | 0.0 | 0.0 | 0.00 | 0.00 | 0.00 | 30 | 1022.4 |
| 20260905024623 | 74 | 0 | 0.0 | 3.0 | 0.00 | 0.00 | 0.00 | 28 | 1022.2 |
| 20260905023124 | 75 | 0 | 0.0 | 1.0 | 0.00 | 0.00 | 0.00 | 28 | 1022.1 |
| 20260905021610 | 75 | 0 | 0.0 | 1.0 | 0.00 | 0.00 | 0.00 | 28 | 1022.0 |
| 20260905020111 | 75 | 0 | 0.0 | 0.0 | 0.00 | 0.00 | 0.00 | 28 | 1021.9 |
| 20260905014616 | 76 | 0 | 0.0 | 1.0 | 0.00 | 0.00 | 0.00 | 27 | 1021.7 |
| 20260905013104 | 77 | 0 | 1.0 | 7.0 | 0.00 | 0.00 | 0.00 | 26 | 1021.5 |
| 20260905011621 | 78 | 0 | 0.0 | 7.0 | 0.00 | 0.00 | 0.00 | 25 | 1021.4 |
| 20260905010104 | 79 | 83 | 3.0 | 10.0 | 0.00 | 0.00 | 0.00 | 24 | 1021.3 |
| 20260905004607 | 80 | 91 | 4.0 | 9.0 | 0.00 | 0.00 | 0.00 | 23 | 1021.3 |
| 20260905003105 | 80 | 24 | 1.0 | 12.0 | 0.00 | 0.00 | 0.00 | 22 | 1021.3 |
| 20260905001609 | 81 | 30 | 1.0 | 5.0 | 0.00 | 0.00 | 0.00 | 19 | 1021.0 |
| 20260905000114 | 81 | 54 | 2.0 | 6.0 | 0.00 | 0.00 | 0.00 | 19 | 1021.1 |
| 20260904234612 | 81 | 50 | 1.0 | 8.0 | 0.00 | 0.00 | 0.00 | 19 | 1021.2 |
| 20260904233102 | 82 | 111 | 2.0 | 11.0 | 0.00 | 0.00 | 0.00 | 19 | 1021.2 |
| 20260904231603 | 82 | 101 | 4.0 | 8.0 | 0.00 | 0.00 | 0.00 | 19 | 1021.0 |